TimeEST,TemperatureF,Dew PointF,Humidity,Sea Level PressureIn,VisibilityMPH,Wind Direction,Wind SpeedMPH,Gust SpeedMPH,PrecipitationIn,Events,Conditions,WindDirDegrees,DateUTC
12:15 AM,32.4,32.2,99,30.00,10.0,Calm,Calm,-,N/A,,Clear,0,2013-01-01 05:15:00
12:35 AM,33.1,32.0,96,30.00,10.0,Calm,Calm,-,N/A,,Clear,0,2013-01-01 05:35:00
12:55 AM,32.9,32.0,96,30.00,10.0,Calm,Calm,-,N/A,,Clear,0,2013-01-01 05:55:00
1:15 AM,33.8,31.6,92,29.98,10.0,Calm,Calm,-,N/A,,Clear,0,2013-01-01 06:15:00
1:35 AM,33.3,32.0,95,29.99,10.0,Calm,Calm,-,N/A,,Clear,0,2013-01-01 06:35:00
1:55 AM,33.3,32.0,95,29.99,10.0,Calm,Calm,-,N/A,,Clear,0,2013-01-01 06:55:00
2:15 AM,32.9,32.0,96,29.99,10.0,Calm,Calm,-,N/A,,Clear,0,2013-01-01 07:15:00
2:35 AM,33.1,31.8,95,29.99,10.0,Calm,Calm,-,N/A,,Clear,0,2013-01-01 07:35:00
2:55 AM,32.0,31.8,99,29.98,10.0,Calm,Calm,-,N/A,,Clear,0,2013-01-01 07:55:00
3:15 AM,32.0,32.0,100,29.99,10.0,Calm,Calm,-,N/A,,Clear,0,2013-01-01 08:15:00
3:35 AM,32.4,32.2,99,29.97,10.0,Calm,Calm,-,N/A,,Clear,0,2013-01-01 08:35:00
3:55 AM,32.2,32.0,99,29.97,10.0,Calm,Calm,-,N/A,,Clear,0,2013-01-01 08:55:00
4:15 AM,33.1,32.4,97,29.97,10.0,Calm,Calm,-,N/A,,Clear,0,2013-01-01 09:15:00
4:35 AM,33.4,32.4,96,29.97,10.0,Calm,Calm,-,N/A,,Clear,0,2013-01-01 09:35:00
4:55 AM,33.8,32.9,96,29.97,10.0,Calm,Calm,-,N/A,,Clear,0,2013-01-01 09:55:00
5:15 AM,33.8,33.1,97,29.98,10.0,Calm,Calm,-,N/A,,Scattered Clouds,0,2013-01-01 10:15:00
5:35 AM,34.7,34.2,98,29.96,10.0,Calm,Calm,-,N/A,,Mostly Cloudy,0,2013-01-01 10:35:00
5:55 AM,35.4,34.7,97,29.97,10.0,Calm,Calm,-,N/A,,Mostly Cloudy,0,2013-01-01 10:55:00
6:15 AM,35.2,34.9,99,29.98,10.0,Calm,Calm,-,N/A,,Overcast,0,2013-01-01 11:15:00
6:35 AM,35.1,35.1,100,29.97,10.0,Calm,Calm,-,N/A,,Scattered Clouds,0,2013-01-01 11:35:00
6:55 AM,35.6,34.7,97,29.97,10.0,Calm,Calm,-,N/A,,Scattered Clouds,0,2013-01-01 11:55:00
7:15 AM,35.4,34.9,98,29.97,10.0,Calm,Calm,-,N/A,,Clear,0,2013-01-01 12:15:00
7:35 AM,35.4,35.4,100,29.97,10.0,Calm,Calm,-,N/A,,Clear,0,2013-01-01 12:35:00
7:55 AM,35.2,34.9,99,29.97,10.0,Calm,Calm,-,N/A,,Clear,0,2013-01-01 12:55:00
8:15 AM,35.4,35.1,99,29.96,10.0,Calm,Calm,-,N/A,,Clear,0,2013-01-01 13:15:00
8:35 AM,36.1,34.7,94,29.97,10.0,Calm,Calm,-,N/A,,Clear,0,2013-01-01 13:35:00
8:55 AM,36.5,34.3,92,29.97,10.0,Calm,Calm,-,N/A,,Clear,0,2013-01-01 13:55:00
9:15 AM,36.5,35.2,95,29.98,10.0,Calm,Calm,-,N/A,,Scattered Clouds,0,2013-01-01 14:15:00
9:35 AM,37.6,36.5,96,29.98,10.0,Calm,Calm,-,N/A,,Scattered Clouds,0,2013-01-01 14:35:00
9:55 AM,38.7,34.3,84,29.98,10.0,Calm,Calm,-,N/A,,Mostly Cloudy,0,2013-01-01 14:55:00
10:15 AM,40.3,33.1,75,29.98,10.0,Calm,Calm,-,N/A,,Overcast,0,2013-01-01 15:15:00
10:35 AM,41.0,34.0,76,29.98,10.0,Calm,Calm,-,N/A,,Scattered Clouds,0,2013-01-01 15:35:00
10:55 AM,40.3,34.9,81,29.99,10.0,Calm,Calm,-,N/A,,Scattered Clouds,0,2013-01-01 15:55:00
11:15 AM,41.0,34.3,77,29.97,10.0,Calm,Calm,-,N/A,,Mostly Cloudy,0,2013-01-01 16:15:00
11:35 AM,41.9,34.2,74,29.97,10.0,NNE,3.5,-,N/A,,Mostly Cloudy,30,2013-01-01 16:35:00
11:55 AM,42.8,34.5,73,29.95,10.0,NNE,3.5,-,N/A,,Mostly Cloudy,20,2013-01-01 16:55:00
12:15 PM,43.0,34.9,73,29.94,10.0,ENE,3.5,-,N/A,,Mostly Cloudy,60,2013-01-01 17:15:00
12:35 PM,43.7,33.6,68,29.95,10.0,NNE,4.6,-,N/A,,Scattered Clouds,30,2013-01-01 17:35:00
12:55 PM,43.3,33.6,69,29.93,10.0,Calm,Calm,-,N/A,,Mostly Cloudy,0,2013-01-01 17:55:00
1:15 PM,43.7,34.2,69,29.92,10.0,East,4.6,-,N/A,,Mostly Cloudy,100,2013-01-01 18:15:00
1:35 PM,43.2,34.7,72,29.91,10.0,East,4.6,-,N/A,,Overcast,100,2013-01-01 18:35:00
1:55 PM,43.2,34.3,71,29.91,10.0,Calm,Calm,-,N/A,,Overcast,0,2013-01-01 18:55:00
2:15 PM,43.3,34.9,72,29.92,10.0,Calm,Calm,-,N/A,,Overcast,0,2013-01-01 19:15:00
2:35 PM,43.3,35.2,73,29.91,10.0,Calm,Calm,-,N/A,,Overcast,0,2013-01-01 19:35:00
2:55 PM,43.5,35.1,72,29.92,10.0,Calm,Calm,-,N/A,,Overcast,0,2013-01-01 19:55:00
3:15 PM,43.3,35.6,74,29.94,10.0,Calm,Calm,-,N/A,,Overcast,0,2013-01-01 20:15:00
3:35 PM,43.0,35.8,76,29.92,10.0,Calm,Calm,-,N/A,,Overcast,0,2013-01-01 20:35:00
3:55 PM,42.8,36.1,77,29.92,10.0,Calm,Calm,-,N/A,,Overcast,0,2013-01-01 20:55:00
4:15 PM,42.8,36.1,77,29.94,10.0,Calm,Calm,-,N/A,,Overcast,0,2013-01-01 21:15:00
4:35 PM,42.6,36.7,79,29.96,10.0,Calm,Calm,-,N/A,,Overcast,0,2013-01-01 21:35:00
4:55 PM,41.2,36.9,85,29.95,10.0,Calm,Calm,-,N/A,,Overcast,0,2013-01-01 21:55:00
5:15 PM,40.6,36.9,86,29.95,10.0,Calm,Calm,-,N/A,,Overcast,0,2013-01-01 22:15:00
5:35 PM,40.1,37.4,90,29.96,10.0,Calm,Calm,-,N/A,,Overcast,0,2013-01-01 22:35:00
5:55 PM,40.1,37.6,91,29.96,10.0,Calm,Calm,-,N/A,,Overcast,0,2013-01-01 22:55:00
6:15 PM,40.1,36.9,88,29.96,10.0,Calm,Calm,-,N/A,,Overcast,0,2013-01-01 23:15:00
6:35 PM,38.8,37.4,95,29.97,10.0,Calm,Calm,-,N/A,,Overcast,0,2013-01-01 23:35:00
6:55 PM,39.4,37.6,93,29.98,10.0,Calm,Calm,-,N/A,,Overcast,0,2013-01-01 23:55:00
7:15 PM,38.7,37.4,95,29.99,10.0,Calm,Calm,-,N/A,,Overcast,0,2013-01-02 00:15:00
7:35 PM,39.0,37.0,93,29.98,10.0,Calm,Calm,-,N/A,,Overcast,0,2013-01-02 00:35:00
7:55 PM,40.8,36.3,84,29.97,10.0,NNE,3.5,-,N/A,,Overcast,20,2013-01-02 00:55:00
8:15 PM,41.0,36.0,82,29.98,10.0,North,3.5,-,N/A,,Overcast,10,2013-01-02 01:15:00
8:35 PM,41.5,35.6,79,29.99,10.0,North,6.9,-,N/A,,Overcast,350,2013-01-02 01:35:00
8:55 PM,41.5,35.8,80,29.99,10.0,North,8.1,-,N/A,,Overcast,350,2013-01-02 01:55:00
9:15 PM,41.7,35.6,79,29.99,10.0,NNW,5.8,-,N/A,,Overcast,340,2013-01-02 02:15:00
9:35 PM,41.4,35.6,80,29.99,10.0,North,3.5,-,N/A,,Overcast,360,2013-01-02 02:35:00
9:55 PM,41.2,35.6,81,30.00,10.0,North,4.6,-,N/A,,Overcast,360,2013-01-02 02:55:00
10:15 PM,41.2,35.4,80,30.01,10.0,North,3.5,-,N/A,,Overcast,360,2013-01-02 03:15:00
10:35 PM,41.0,35.1,79,30.00,10.0,NNE,4.6,-,N/A,,Overcast,20,2013-01-02 03:35:00
10:55 PM,41.0,35.1,79,30.00,10.0,North,4.6,-,N/A,,Overcast,10,2013-01-02 03:55:00
11:15 PM,40.6,35.1,80,30.00,10.0,NNE,4.6,-,N/A,,Overcast,30,2013-01-02 04:15:00
11:55 PM,40.1,35.1,82,30.00,10.0,North,3.5,-,N/A,,Overcast,10,2013-01-02 04:55:00